GFSSGP_250_rhum_057.txt.gz
RH
30 29 26 30 57 62 100 87 75 37 31 81 84 45 47 73 100 96 57 39 68 50 26 21 56 80 59 65 39 47 50 62 74 78 62 39 27 30 44 37 54 34 53 52 55 56 28 33 68
24 41 32 30 35 92 93 100 100 60 52 59 76 88 81 86 92 99 61 39 70 27 19 26 56 57 60 45 54 40 43 56 50 36 31 30 34 48 50 53 48 50 54 50 64 63 96 31 70
23 30 23 31 45 57 83 100 99 72 62 88 100 100 94 87 100 87 28 30 50 22 15 46 55 57 69 42 44 40 47 44 46 47 53 48 48 46 40 43 47 49 59 86 49 47 77 48 68
24 24 25 38 70 78 70 96 38 100 87 98 100 72 100 100 85 90 40 31 24 14 20 69 38 50 45 57 40 43 47 46 87 57 46 49 38 31 30 32 33 41 66 61 59 66 84 100 93
23 20 34 39 77 100 100 94 99 70 52 87 100 95 100 100 100 96 36 28 22 12 36 44 39 46 38 54 36 45 45 76 50 42 53 45 43 42 30 24 20 22 38 52 58 79 76 84 61
20 18 36 92 85 62 88 100 57 26 62 100 100 100 100 100 100 72 53 22 26 12 39 30 25 34 34 35 33 71 46 61 46 56 46 30 53 32 25 23 26 26 25 24 26 24 22 23 25
17 17 28 100 100 89 59 100 77 73 70 100 98 95 100 100 100 78 54 16 27 14 35 27 28 35 56 56 59 41 54 48 44 47 30 50 44 32 28 25 27 34 32 35 32 33 37 57 62
17 18 30 77 91 73 83 66 83 72 72 92 99 100 87 100 80 43 20 14 23 15 28 22 26 27 28 32 38 43 48 44 33 30 37 41 38 61 63 54 36 49 64 45 43 57 61 60 68
18 19 24 52 58 80 99 100 52 67 68 72 98 100 100 83 56 31 16 14 20 12 27 23 21 26 27 38 37 37 44 37 50 49 38 32 35 100 77 76 73 78 88 78 91 54 49 54 52
19 17 20 37 46 62 100 100 100 40 24 45 60 68 71 63 46 30 14 15 20 12 31 22 18 19 29 26 31 35 37 66 56 30 34 31 39 49 89 100 100 98 94 73 75 77 54 72 50
21 24 23 26 32 36 99 100 70 34 28 81 98 99 91 100 37 18 15 17 18 15 28 19 16 14 17 22 35 44 57 48 53 22 30 27 39 39 89 91 93 100 36 65 87 37 34 49 38
16 17 23 31 20 22 88 100 100 76 88 100 84 100 100 74 22 16 15 17 14 26 15 22 49 13 28 25 27 29 40 30 38 33 32 46 40 38 44 41 78 41 28 25 32 40 30 34 31
16 16 16 26 28 22 53 72 93 76 99 98 100 96 93 100 18 15 14 14 12 32 10 21 63 41 26 39 28 24 51 35 89 59 26 27 32 32 37 38 44 26 41 25 43 26 26 26 27
17 19 20 18 26 25 44 41 17 64 97 100 100 92 93 90 17 16 14 14 11 30 11 21 27 54 20 30 41 42 36 54 70 93 36 27 46 60 66 43 25 25 25 24 24 22 21 23 30
18 19 21 21 20 19 40 26 25 81 100 100 100 78 60 19 22 15 14 14 11 27 12 16 24 44 28 22 42 49 50 29 31 35 38 75 72 44 24 25 21 23 20 20 19 19 19 17 15
18 18 20 19 21 18 23 28 34 41 80 95 92 100 94 60 19 16 14 14 12 20 15 12 24 24 20 33 25 44 29 30 22 28 28 35 35 53 39 24 20 19 19 20 20 21 22 15 11
16 18 18 18 18 19 18 20 22 23 36 58 93 100 100 94 69 52 14 15 12 14 21 9 17 26 20 19 16 25 47 59 26 26 30 48 90 89 33 45 20 22 22 19 21 24 22 18 11
12 13 14 17 18 18 17 20 20 19 16 31 96 99 100 89 58 90 70 14 11 11 23 9 14 27 18 18 18 19 19 28 31 48 66 80 53 42 30 32 31 16 20 19 20 23 24 24 15
19 11 11 11 13 16 16 19 26 17 20 96 100 92 94 80 64 55 22 12 11 12 23 10 14 27 19 16 20 20 20 21 28 42 64 95 64 46 39 26 30 16 20 24 24 27 27 28 24
19 20 14 11 10 10 12 13 15 17 14 39 100 89 100 66 66 77 33 8 8 14 26 10 12 28 17 15 18 22 30 28 24 36 46 69 63 47 41 33 56 20 18 25 24 25 24 24 27
22 22 17 12 10 9 9 10 11 12 13 14 78 99 94 88 98 84 8 8 8 28 24 10 12 26 27 13 17 22 26 35 48 61 42 28 47 63 55 52 49 34 21 27 24 25 22 22 22
22 21 20 15 10 10 10 10 8 8 9 13 22 68 100 92 100 57 7 8 8 33 16 10 12 19 43 20 16 21 21 29 39 52 47 45 39 71 54 67 47 50 37 31 30 30 40 23 23
22 20 18 15 12 10 10 10 12 6 8 10 100 100 100 100 88 7 7 8 10 28 16 12 11 13 24 40 16 19 21 24 30 39 41 40 50 70 68 72 45 62 68 44 33 29 24 25 23
17 15 16 16 13 11 13 12 12 9 9 33 54 100 99 100 100 11 8 9 20 17 12 11 11 12 14 44 24 18 20 24 34 39 40 53 51 89 98 46 52 48 74 61 70 52 40 27 19
21 15 14 14 13 22 16 11 13 12 9 18 76 100 100 100 100 24 9 11 22 15 12 14 11 11 12 22 33 26 22 24 30 38 48 48 45 44 38 47 62 35 37 53 63 27 32 33 19
16 18 15 15 20 30 13 10 19 11 9 9 30 100 100 96 36 23 8 10 24 15 16 22 18 12 12 12 34 28 34 26 27 32 35 46 44 50 50 48 44 37 44 40 35 34 37 34 22
20 14 15 13 17 11 10 10 12 9 8 10 13 68 100 100 57 75 14 13 20 12 20 29 27 13 14 13 18 30 25 32 30 36 46 47 44 43 51 50 48 47 36 41 36 23 15 19 18
14 18 14 11 10 12 18 14 15 10 8 10 12 76 98 90 63 82 49 21 21 16 16 29 31 13 14 16 15 24 41 26 30 35 41 52 57 43 52 63 50 40 37 26 21 23 17 26 26
12 12 14 15 14 10 15 16 22 11 9 8 11 72 88 65 94 96 95 100 20 22 18 27 32 15 13 16 15 16 18 35 32 28 31 44 55 46 38 52 51 32 39 37 24 20 19 17 24
14 11 10 10 12 14 10 22 35 15 7 6 10 36 100 99 100 100 100 100 94 13 17 28 37 34 14 12 15 15 15 15 32 28 26 32 42 40 39 40 53 43 25 26 29 22 20 19 20

GFSSGP_250_rhum_060.txt.gz
RH
25 27 24 33 53 30 99 93 79 68 44 73 99 96 85 87 100 89 50 32 21 11 32 60 76 55 46 52 48 51 54 50 49 42 29 30 47 52 57 56 50 39 45 56 54 72 36 26 61
31 29 26 30 60 88 99 100 100 98 72 99 40 99 56 98 100 88 48 62 14 23 48 52 54 61 42 48 51 43 41 41 46 50 48 41 50 42 44 56 56 68 70 76 61 65 81 26 71
21 36 26 24 39 52 98 100 99 99 96 100 84 59 53 100 100 60 77 29 11 31 34 33 33 52 40 36 43 38 44 66 46 43 31 37 30 28 29 33 38 47 60 63 47 74 51 48 68
19 20 19 49 63 94 100 84 100 100 100 100 100 98 79 98 100 98 34 19 12 30 30 28 30 36 41 37 43 43 66 46 43 36 50 38 26 20 20 24 42 59 57 50 47 76 84 94 76
18 17 21 34 87 94 100 100 100 100 81 100 95 67 100 100 87 62 17 15 14 31 26 25 37 29 32 38 57 52 50 46 36 44 39 25 28 24 23 20 27 40 46 54 51 56 52 60 64
17 17 25 43 89 84 100 100 100 81 62 92 84 75 60 87 92 42 16 12 13 32 22 30 36 39 34 41 41 47 47 36 33 50 31 34 31 34 33 29 29 34 35 31 29 36 60 50 48
18 16 20 65 62 96 100 100 100 98 75 87 74 99 59 97 84 40 17 12 13 33 22 25 27 34 38 37 44 43 33 29 50 37 32 33 35 44 44 43 41 53 50 62 60 55 64 61 85
18 17 16 73 66 77 95 100 100 100 100 94 82 78 96 100 71 40 14 15 13 29 22 24 22 31 40 42 42 38 27 40 40 50 44 52 44 58 68 68 57 49 45 39 46 68 89 61 56
18 17 15 29 82 88 96 100 100 100 100 97 90 87 77 84 95 23 15 14 18 21 22 16 18 22 32 33 35 32 39 34 36 57 99 99 92 92 86 62 49 40 37 35 37 45 48 41 42
17 17 16 22 52 74 82 100 100 100 100 47 53 63 96 100 69 18 16 12 23 16 22 16 14 17 25 27 35 60 29 41 32 45 77 82 100 82 60 50 68 56 27 28 30 31 28 27 32
15 19 17 18 35 51 96 100 100 99 100 90 100 79 100 100 34 18 16 13 21 13 25 22 18 17 28 35 36 44 32 27 49 46 37 93 96 96 82 47 29 32 27 27 33 33 31 34 39
14 17 17 16 22 35 85 99 100 100 99 100 61 33 90 100 78 20 16 14 16 18 25 47 29 24 18 26 24 32 39 37 28 37 37 70 74 59 40 38 28 32 29 26 26 28 31 36 39
13 15 16 16 23 32 49 99 100 97 100 100 86 68 100 100 64 24 15 14 12 25 12 24 73 27 21 34 31 37 60 53 28 40 45 39 33 42 25 26 24 23 22 22 25 30 26 22 24
12 13 13 16 19 33 48 71 96 100 97 100 100 100 100 84 43 27 16 15 14 19 10 19 56 29 24 33 35 39 58 38 38 36 42 68 39 24 25 22 20 20 22 21 23 15 12 12 10
16 14 12 12 14 16 32 34 93 63 67 63 100 100 96 100 96 58 25 19 15 12 12 15 30 39 26 26 44 29 36 52 52 60 54 59 27 26 20 19 20 20 22 24 22 14 10 8 8
21 20 14 10 18 25 23 24 48 58 36 71 100 77 83 99 100 100 91 35 22 10 18 11 23 31 26 22 39 34 21 19 33 34 62 62 35 24 17 18 18 19 23 25 23 17 10 8 10
21 20 18 14 17 13 17 15 18 40 23 41 65 97 86 92 98 80 73 91 64 11 19 10 16 27 25 17 40 40 35 23 32 39 63 71 38 34 21 18 20 19 21 23 25 23 15 10 9
12 16 21 21 20 20 19 16 14 20 20 20 14 48 52 83 98 92 86 44 30 11 17 10 11 24 24 18 24 40 61 31 35 50 48 63 27 30 36 17 18 20 24 26 24 22 24 19 12
12 11 12 18 20 20 25 20 15 17 16 15 16 20 90 100 100 100 100 80 100 27 16 12 11 25 21 18 17 22 28 30 49 65 58 49 40 25 36 22 19 22 20 21 21 19 22 26 24
25 17 12 11 15 18 20 19 22 19 15 13 14 25 100 100 100 100 90 74 100 16 20 15 11 23 22 19 18 18 22 22 42 55 77 52 44 31 50 44 18 20 23 23 21 20 20 22 25
22 29 18 10 10 13 16 18 18 19 15 20 18 24 100 98 98 83 71 100 52 9 30 21 11 21 23 20 20 21 27 25 34 48 42 54 55 57 56 56 31 25 27 25 33 22 21 22 22
20 32 22 10 9 11 11 12 22 32 19 19 19 27 91 100 95 55 100 93 9 10 32 20 10 16 27 21 19 25 30 38 57 56 41 34 57 64 51 62 50 43 33 27 24 23 20 26 23
17 22 25 14 12 12 12 11 10 12 19 17 17 18 100 100 70 54 79 100 8 10 32 15 10 14 33 28 19 23 25 31 42 52 41 46 49 65 63 73 51 62 51 48 43 36 26 23 31
15 17 20 19 15 16 19 16 13 11 10 12 15 17 82 83 60 83 100 66 7 8 24 12 9 12 22 31 20 19 21 27 29 43 43 46 62 76 88 54 54 50 64 46 31 31 28 19 30
19 18 24 24 28 28 17 20 18 15 11 10 9 11 47 27 52 65 55 29 8 8 14 11 10 10 13 29 30 18 22 22 28 40 51 58 50 77 75 50 61 35 35 41 39 26 26 20 23
16 17 20 32 38 33 18 14 28 16 9 8 8 11 32 72 65 72 42 37 10 12 17 12 15 10 14 13 35 27 19 22 27 41 61 58 48 51 46 46 44 36 45 39 27 22 15 18 19
17 18 19 20 24 18 18 21 31 16 10 9 10 15 68 88 100 82 35 33 17 14 28 17 18 13 12 15 18 37 24 20 24 30 47 55 58 57 60 59 46 44 37 35 33 23 17 21 20
19 17 14 15 18 17 24 29 26 13 11 11 11 11 30 80 100 56 61 67 12 10 25 30 26 16 11 17 14 32 31 31 25 27 33 44 52 57 53 64 59 51 37 31 24 22 20 17 19
22 24 21 17 15 18 21 30 22 11 11 11 13 12 14 99 99 69 58 73 17 10 14 28 32 32 12 11 14 21 37 30 36 32 33 42 49 53 50 47 53 54 29 24 24 22 21 20 18
15 17 19 20 16 16 26 47 22 13 10 9 11 13 11 52 100 99 82 84 38 14 20 21 29 36 19 10 13 16 19 45 36 31 32 35 39 49 52 45 45 53 48 30 21 20 21 22 21

GFSSGP_250_rhum_063.txt.gz
RH
28 26 32 46 60 100 96 100 79 99 100 99 79 85 60 64 79 58 29 15 18 39 37 40 52 39 40 37 40 41 46 50 55 48 40 39 48 51 58 61 56 47 64 61 66 57 59 25 53
28 25 26 35 64 82 100 100 100 98 100 100 100 82 84 92 96 38 15 17 22 36 26 24 46 35 42 35 35 61 48 49 44 41 40 35 32 32 38 51 54 68 48 57 47 74 62 26 59
28 27 26 23 37 67 100 100 100 100 92 100 100 90 100 100 100 59 22 18 27 30 27 26 44 39 38 38 56 50 48 40 57 31 22 18 18 21 29 37 41 43 50 48 51 44 43 60 67
21 30 17 35 57 98 94 100 100 100 99 100 100 100 100 59 99 44 23 11 28 26 29 38 33 37 44 44 56 47 37 41 33 24 20 20 17 29 41 49 53 49 45 44 42 57 74 95 92
18 16 26 46 75 91 100 98 100 100 86 100 98 87 75 88 97 45 15 10 27 27 24 32 34 35 58 44 51 49 36 37 42 34 29 32 35 31 28 32 33 36 32 26 33 52 94 100 97
17 17 19 38 75 100 100 100 87 99 97 66 87 83 90 100 100 56 12 11 26 29 23 29 36 38 38 44 44 36 44 42 40 44 46 51 37 36 36 41 41 42 49 62 60 64 67 60 49
17 17 20 47 88 98 100 100 86 97 100 100 91 100 89 100 85 26 12 12 22 26 18 24 32 37 39 50 33 42 36 36 44 60 57 78 67 49 46 34 41 48 53 56 64 68 51 39 36
17 17 19 28 58 100 100 100 100 100 100 100 98 99 100 84 94 17 13 18 22 24 16 20 21 30 30 31 38 40 33 41 57 56 62 72 62 44 42 39 31 37 85 80 35 46 36 30 31
17 16 18 20 67 95 100 100 100 89 100 94 96 61 79 91 57 18 14 13 15 24 18 18 24 25 32 40 35 37 54 72 98 100 93 60 58 49 37 26 25 28 43 30 28 28 31 35 34
17 17 18 18 26 60 85 100 100 98 100 100 96 82 100 88 67 39 15 13 17 23 22 21 22 33 36 36 31 31 33 72 82 94 95 90 75 34 28 30 29 52 61 34 34 37 43 47 42
17 17 19 18 19 26 68 88 100 100 100 100 86 53 100 100 99 53 13 14 20 19 36 36 20 20 26 43 27 39 41 48 56 76 90 63 38 37 29 28 23 41 30 29 29 31 36 40 41
16 15 20 18 18 19 26 58 100 100 98 92 63 61 97 100 100 67 18 14 14 15 36 51 27 22 26 37 34 31 26 43 44 75 75 49 33 32 24 20 20 25 26 13 12 12 14 16 20
14 16 22 18 19 19 20 38 100 100 86 76 59 69 90 88 100 86 31 25 14 14 13 31 33 22 27 53 49 28 31 40 42 44 43 39 31 26 21 21 22 23 19 12 10 8 10 13 14
13 15 18 23 19 20 20 38 100 100 97 100 68 84 86 89 100 99 85 88 18 14 11 23 47 33 26 28 42 30 27 33 37 52 46 24 26 22 22 21 24 24 21 12 9 9 10 11 12
14 14 12 17 16 18 22 31 80 100 100 100 100 79 100 100 95 100 100 99 46 24 12 16 35 31 25 27 37 40 46 45 53 61 33 25 21 18 20 20 22 25 24 17 11 10 9 10 11
17 14 14 12 14 16 18 21 27 39 78 97 70 82 100 79 93 99 100 91 91 26 13 10 22 34 25 35 18 24 39 46 58 66 40 44 21 23 22 20 23 28 27 24 17 14 11 10 9
15 13 15 12 12 15 13 15 18 25 32 78 65 100 100 90 73 99 93 100 68 60 37 13 13 25 24 24 25 20 26 34 55 71 57 41 43 21 23 21 25 28 24 22 26 25 20 15 11
12 13 16 17 18 20 18 16 31 36 35 34 56 57 73 97 82 81 89 100 80 87 61 29 10 22 23 18 39 25 26 27 40 53 72 44 55 29 22 22 26 21 21 20 25 29 30 24 15
9 11 14 15 14 22 19 16 22 20 27 34 37 29 36 23 42 100 99 100 100 100 73 30 11 18 24 19 32 46 29 33 48 49 54 36 33 54 22 24 25 22 22 21 21 24 31 32 26
14 10 10 12 18 19 23 21 24 18 28 25 23 16 23 22 41 83 100 100 100 100 75 19 13 15 23 22 19 33 38 38 48 85 65 49 41 56 35 21 26 27 31 24 23 24 26 30 30
28 16 10 9 11 18 23 24 23 20 23 25 20 14 25 25 54 99 96 98 98 88 33 11 18 16 23 19 18 16 20 32 48 94 58 49 54 66 52 30 31 32 26 27 24 26 26 27 26
28 21 12 9 10 11 14 17 22 22 23 33 22 14 18 26 37 100 94 98 64 100 41 9 24 12 23 20 19 17 18 22 35 43 42 50 66 68 67 45 45 42 45 52 38 22 31 25 26
27 22 13 10 11 14 12 12 14 18 19 21 22 15 14 28 36 74 58 62 46 96 71 10 28 11 22 22 20 20 26 22 34 56 42 37 65 63 80 60 56 56 50 50 30 24 23 33 24
22 23 17 14 15 20 27 18 14 16 17 19 19 18 16 24 34 28 59 54 72 94 67 13 29 12 15 22 20 18 28 32 38 50 47 46 53 72 72 52 64 55 53 45 31 27 19 28 31
16 20 20 17 17 21 26 38 29 16 13 14 14 17 22 19 24 18 56 58 61 55 41 7 31 11 12 22 21 20 22 26 27 40 44 46 59 68 75 47 54 39 35 29 32 32 18 21 32
15 14 16 17 18 20 19 27 40 23 13 10 11 12 17 23 18 17 32 63 49 72 42 7 28 13 11 16 24 22 21 19 23 28 39 46 48 42 45 41 52 38 44 43 30 21 26 20 28
19 18 17 15 14 16 16 19 25 19 18 10 10 11 12 12 14 14 14 16 41 49 41 13 22 15 13 17 25 36 23 22 20 25 39 42 44 39 42 45 43 39 43 36 28 24 20 18 22
14 15 16 17 16 16 18 18 18 15 16 12 12 14 11 11 12 11 11 23 49 44 36 19 19 15 13 14 19 22 40 24 20 22 33 42 37 42 33 40 54 35 33 32 31 23 21 19 20
18 12 12 15 17 19 24 15 15 15 18 16 15 17 14 12 19 97 44 39 59 37 42 14 21 16 16 15 15 18 26 45 30 21 25 32 32 35 38 32 30 37 33 27 27 27 24 22 20
25 19 14 14 15 19 21 18 17 16 14 16 19 17 22 14 12 100 100 100 54 71 51 12 21 22 25 21 11 17 17 44 42 37 24 26 29 32 50 50 33 28 30 37 39 27 25 24 23

GFSSGP_250_rhum_069.txt.gz
RH
25 28 71 99 99 87 75 100 100 100 100 100 86 100 73 79 85 15 16 14 26 35 33 52 51 33 32 33 38 27 22 21 20 21 21 27 31 46 44 57 45 68 84 60 57 84 91 63 68
28 29 81 76 99 56 94 100 100 100 83 100 100 94 97 75 74 13 15 15 24 30 32 52 44 31 32 31 21 20 21 23 24 42 60 56 47 49 58 50 58 52 75 51 80 58 62 64 89
28 31 41 63 100 80 93 97 100 100 100 87 100 99 93 77 39 15 15 17 21 29 35 45 41 31 34 26 23 26 29 33 29 27 39 41 40 42 52 42 35 53 45 54 69 71 83 84 99
26 26 32 55 99 86 73 96 100 100 100 67 100 98 100 79 27 14 14 21 19 24 35 39 36 33 36 34 37 30 40 47 55 52 38 41 48 62 56 42 31 37 63 70 72 71 74 95 96
24 27 29 85 97 76 87 98 100 100 100 94 100 75 100 68 28 15 14 23 20 23 26 33 34 35 36 50 47 36 39 48 58 64 60 67 70 71 51 72 54 51 48 48 48 68 49 78 64
24 29 29 86 89 76 85 100 100 100 100 72 56 51 100 60 59 19 12 23 23 23 25 25 37 35 42 40 48 48 38 39 56 53 46 67 62 43 45 40 39 34 36 60 64 46 73 53 62
23 25 33 60 88 99 99 97 100 100 80 34 36 31 96 70 90 19 12 22 26 22 25 25 29 33 48 48 43 50 54 30 33 42 33 44 68 46 52 33 31 32 35 36 42 83 64 68 70
16 23 30 48 84 100 89 100 98 45 31 21 30 47 80 59 95 51 16 14 35 20 24 22 27 45 45 54 50 46 54 34 32 26 40 39 43 50 32 28 28 30 31 45 78 41 48 77 67
20 19 19 32 74 100 100 98 94 52 55 41 60 97 64 60 98 92 28 14 27 24 21 20 20 29 47 45 47 40 52 36 34 24 36 51 18 12 12 12 10 13 13 14 15 19 61 64 80
20 16 19 20 41 100 81 80 61 59 57 44 37 72 56 73 93 84 57 21 11 31 26 20 19 22 26 36 30 52 61 47 28 22 23 26 19 12 9 8 9 10 10 18 18 26 20 41 66
19 17 18 19 23 76 92 97 100 75 89 53 80 72 51 49 61 89 76 22 15 22 30 29 24 20 22 25 24 34 75 46 27 21 22 23 21 15 11 10 9 9 10 11 12 17 19 39 60
18 18 20 19 19 21 68 80 100 80 86 68 62 50 39 41 47 87 81 35 27 24 28 35 33 25 20 22 20 33 45 32 25 21 20 22 22 21 16 15 12 10 9 10 11 12 19 24 51
18 22 20 18 18 17 22 62 85 40 29 90 68 53 42 41 47 98 84 62 56 42 24 35 33 30 17 18 21 26 39 25 22 20 21 23 21 21 21 20 17 14 11 9 10 13 17 20 32
21 16 16 16 15 16 18 34 32 26 28 80 77 33 35 63 54 98 91 80 65 62 37 28 28 28 27 24 22 24 26 19 17 19 20 20 20 19 21 20 20 19 14 11 10 11 16 20 23
29 12 13 15 15 16 18 20 22 28 28 74 87 40 31 79 59 94 79 98 82 85 53 39 23 26 29 26 31 23 15 17 27 32 33 20 21 18 21 35 22 21 20 16 11 12 17 21 27
26 16 13 17 16 18 18 18 20 23 33 65 98 52 46 78 59 70 98 92 96 99 61 54 25 24 28 23 32 37 21 29 32 34 37 28 19 18 18 41 28 21 23 20 16 12 14 14 19
21 22 19 20 18 18 19 21 18 36 31 83 100 71 83 100 72 45 85 86 87 98 81 73 37 19 22 28 24 35 33 24 39 46 34 30 19 18 21 24 22 19 23 22 21 15 13 14 14
20 21 20 20 18 19 19 20 24 21 32 36 98 99 100 100 90 45 53 52 61 95 92 81 46 15 23 20 29 25 35 40 44 49 35 25 20 18 20 17 17 21 20 23 23 20 16 15 13
18 20 19 20 20 18 18 18 22 20 20 25 33 83 92 63 44 40 35 30 32 88 95 72 59 18 19 22 22 30 26 44 42 50 36 36 25 23 19 27 17 19 21 21 24 24 21 18 14
14 17 17 19 20 19 18 18 18 18 19 18 20 22 21 22 27 33 32 25 24 83 86 74 72 23 14 24 22 26 38 34 38 47 40 36 37 31 28 29 29 18 21 20 22 25 24 22 18
12 14 15 16 17 18 19 18 19 19 19 17 16 16 16 14 26 23 34 25 21 55 76 70 52 77 14 19 24 22 22 48 40 67 47 38 45 44 36 45 37 21 19 21 21 22 25 24 22
19 11 12 13 14 15 18 18 18 18 17 19 18 14 13 16 21 22 35 24 18 19 35 60 55 70 28 15 24 24 20 23 34 56 53 46 42 66 45 54 44 26 21 19 20 23 24 27 25
22 17 12 12 11 11 13 15 16 16 17 14 12 13 12 12 22 25 30 24 17 19 30 47 50 47 46 16 20 24 24 19 20 42 67 49 47 61 66 65 76 37 24 17 18 23 24 27 30
22 20 21 19 14 11 11 12 13 14 15 16 20 21 18 18 20 22 28 28 18 18 17 30 38 39 30 18 15 20 23 24 21 23 40 41 36 68 59 39 73 36 27 28 21 21 27 27 29
25 24 29 32 31 20 15 12 12 12 12 13 15 15 18 19 20 17 22 28 21 16 21 23 32 44 23 23 11 14 20 23 26 32 49 52 36 41 55 30 63 34 31 39 24 26 23 26 31
17 28 31 33 36 42 30 19 15 12 11 11 11 13 16 16 18 20 16 20 16 16 17 17 24 59 44 20 15 10 17 22 25 30 49 49 40 38 48 45 55 38 21 25 24 23 24 24 29
15 19 32 34 37 36 29 28 22 17 14 13 13 12 11 11 13 21 23 20 19 17 18 22 22 32 47 42 27 11 12 19 22 27 34 39 36 38 40 44 62 50 40 20 22 22 20 20 26
12 16 17 27 39 39 33 37 26 28 24 21 20 19 14 13 11 12 16 18 19 18 19 26 22 21 29 56 58 20 11 20 21 24 28 32 29 33 39 36 46 45 66 53 23 20 22 21 21
14 13 14 18 26 28 38 38 39 28 30 30 29 30 24 20 14 13 12 12 17 18 19 30 33 24 18 77 68 28 14 14 23 25 25 27 28 27 39 39 36 36 41 53 49 29 27 24 24
17 14 13 13 16 20 28 32 40 38 29 30 29 35 32 30 23 19 15 13 13 16 21 24 28 20 18 39 53 37 24 12 17 32 36 27 27 25 25 35 33 34 40 34 44 77 48 48 34

GFSSGP_250_rhum_072.txt.gz
RH
28 54 100 98 68 23 78 94 69 90 100 98 100 70 98 36 19 20 19 23 28 37 39 26 22 21 22 26 26 25 36 47 41 28 22 25 38 47 52 39 65 68 93 73 59 73 94 53 81
26 49 85 62 82 75 100 100 100 100 100 69 98 100 97 58 13 20 19 21 28 35 33 24 22 25 26 31 32 32 40 43 39 37 42 41 44 65 44 52 61 50 57 62 48 53 63 97 100
23 68 72 85 53 52 98 100 100 100 100 82 98 80 93 76 13 20 19 21 27 31 30 27 26 29 31 33 41 45 44 47 44 48 48 52 42 41 36 41 59 38 54 63 73 98 100 100 100
21 63 73 58 100 36 75 100 100 100 100 88 60 57 89 91 16 19 19 20 27 26 27 29 37 38 35 31 37 39 44 51 50 52 53 54 72 51 50 56 62 64 51 45 54 100 100 100 97
22 58 60 84 98 83 77 100 100 100 98 75 33 58 84 92 23 17 24 16 23 24 29 34 41 42 43 34 28 33 28 45 44 45 50 44 45 49 41 43 45 56 72 78 63 82 100 100 91
22 27 72 99 72 84 86 96 100 100 98 31 25 72 71 81 44 17 28 16 19 22 24 32 36 40 46 46 28 25 26 34 42 51 58 50 45 36 34 34 35 44 40 65 82 100 83 84 72
23 39 78 98 94 72 60 97 100 99 69 25 28 94 61 71 84 20 24 18 20 19 24 31 39 47 46 56 43 33 24 38 30 29 40 40 33 31 26 26 26 32 96 100 88 65 93 67 40
26 40 58 82 95 84 98 100 56 59 40 34 46 97 55 47 79 32 18 23 20 19 18 33 50 57 52 43 44 42 29 28 54 47 49 29 10 12 13 13 17 28 63 46 51 64 53 36 34
26 31 37 67 95 100 78 100 63 58 39 49 44 50 44 41 74 44 20 22 24 22 22 22 37 44 59 59 47 49 29 26 23 22 18 14 9 9 10 10 14 17 16 24 73 57 59 55 52
21 52 26 45 67 100 56 100 86 55 55 51 32 63 39 40 67 61 34 17 25 29 29 22 23 28 35 39 41 56 27 20 20 21 20 14 12 10 9 9 10 10 24 15 16 36 50 52 63
22 53 28 28 44 100 69 90 100 100 50 59 50 47 37 39 61 73 56 41 24 31 29 30 22 24 35 27 31 38 25 19 20 20 22 20 18 14 10 9 9 10 12 14 16 38 56 58 64
19 29 33 21 28 52 100 85 38 99 67 59 67 57 45 40 54 84 64 61 56 30 29 28 25 22 22 21 22 27 19 18 22 20 20 18 19 19 17 12 9 9 11 15 17 23 48 57 63
28 20 24 19 18 24 58 92 88 99 93 45 73 69 34 52 44 74 85 75 83 39 31 21 26 26 23 24 19 17 15 16 18 20 19 18 29 21 19 18 13 10 12 16 18 19 36 51 56
28 22 18 19 17 17 21 31 67 75 96 30 87 76 31 59 45 71 62 90 99 56 51 18 22 26 30 26 20 12 15 20 19 17 19 18 35 32 23 18 19 15 11 14 15 21 22 42 52
24 18 17 18 17 18 18 22 26 60 61 33 55 55 65 52 57 53 44 84 100 82 71 30 18 22 29 36 30 20 17 23 26 21 18 17 84 53 26 18 19 18 14 12 12 13 22 24 44
24 16 15 18 18 19 20 41 44 36 37 32 52 35 54 51 80 54 48 73 100 81 85 54 16 23 22 35 42 34 23 24 30 25 22 16 64 60 20 20 20 20 18 15 13 12 19 25 23
22 20 18 15 17 18 19 18 32 32 25 25 67 71 39 58 92 72 52 38 63 70 86 66 34 17 24 21 35 37 36 34 33 28 22 20 38 64 30 22 20 21 20 19 16 12 15 18 22
24 22 20 16 16 16 18 18 20 33 47 31 31 42 40 60 80 87 78 35 48 78 77 63 55 20 18 25 22 30 46 44 37 33 40 26 25 57 38 20 26 20 22 21 20 15 14 13 14
26 27 22 18 19 19 22 20 21 18 24 23 39 34 50 70 87 89 45 32 29 69 83 75 64 54 14 18 32 31 37 50 46 34 66 35 34 38 42 21 19 18 21 22 23 19 17 15 12
22 23 26 22 22 23 24 24 22 19 22 21 28 36 69 78 61 68 30 26 24 29 83 82 64 86 37 13 17 34 38 38 41 51 45 43 44 49 47 28 19 17 19 22 24 22 20 18 16
13 19 23 23 22 21 22 23 23 20 19 22 20 22 23 37 28 25 25 28 25 22 32 65 65 78 50 22 15 16 26 53 87 72 41 73 58 50 48 36 26 16 19 21 25 25 24 21 19
16 11 18 18 20 21 20 21 22 21 18 18 18 16 16 20 21 17 23 36 29 17 18 18 66 56 38 36 15 20 17 23 37 67 54 50 78 79 61 62 32 20 18 21 24 26 26 25 23
18 15 11 14 16 18 18 19 20 21 20 19 17 17 16 18 19 17 25 60 40 26 17 21 41 48 31 28 21 18 17 17 51 37 86 56 76 80 53 54 31 29 32 19 26 28 28 27 26
19 22 19 13 13 16 17 17 18 18 19 19 19 18 17 17 19 17 24 32 40 25 17 19 22 36 40 22 21 15 21 17 18 46 61 57 54 94 52 49 32 37 75 22 23 33 42 28 28
14 21 31 25 14 14 15 16 16 16 17 17 19 18 17 17 16 17 17 22 38 22 15 19 20 24 47 44 22 16 20 26 31 49 66 41 42 40 61 76 95 30 55 44 32 31 33 39 32
15 18 35 42 34 19 15 14 14 14 14 15 16 16 16 16 18 19 17 16 24 20 12 17 18 20 32 53 34 24 14 20 19 27 32 46 41 37 48 66 76 31 20 26 31 24 25 37 49
15 15 22 36 43 33 22 13 16 13 12 12 12 12 13 14 15 19 21 20 18 17 13 14 20 19 29 48 44 42 28 15 22 20 26 43 41 36 44 40 68 64 76 23 29 36 20 24 29
16 15 15 37 49 50 39 28 18 16 14 13 12 11 11 10 12 13 17 20 19 19 17 18 19 19 21 30 31 38 45 22 16 21 21 32 39 37 36 40 44 61 87 72 28 20 21 22 22
16 16 14 22 41 51 48 40 41 34 25 19 15 13 11 13 14 12 18 13 14 16 20 19 19 19 22 23 20 36 64 36 17 22 25 24 30 31 33 57 74 45 51 51 56 35 35 30 27
18 16 17 15 30 52 52 43 44 42 37 30 28 22 16 13 13 26 14 37 36 18 15 17 18 18 21 20 25 29 67 38 29 14 26 28 26 32 30 60 60 63 33 39 49 80 72 67 46

GFSSGP_250_rhum_075.txt.gz
RH
69 64 23 15 23 58 100 100 100 100 100 77 87 78 72 15 26 19 23 32 30 22 21 26 33 38 37 36 32 42 40 48 54 23 21 27 37 36 43 49 65 93 75 67 53 63 90 56 96
31 91 97 55 55 87 100 100 100 100 98 94 45 80 73 16 23 20 24 28 23 21 23 29 30 39 45 54 65 61 50 52 42 37 48 38 47 48 47 72 71 60 60 54 69 71 74 100 80
22 86 46 30 30 82 100 100 100 100 100 83 29 96 71 17 19 18 22 23 21 25 34 37 30 47 43 50 62 50 49 54 60 58 44 42 38 35 50 48 44 61 81 99 99 90 98 95 100
21 63 60 57 98 61 58 99 100 66 75 43 28 94 59 54 17 18 20 20 21 27 37 37 35 32 41 42 53 58 41 43 50 52 50 42 43 48 61 64 59 51 72 86 83 100 100 100 86
20 87 81 100 100 99 74 96 100 100 82 37 50 83 45 73 16 19 17 20 28 30 41 47 40 38 43 49 40 43 40 43 33 41 34 29 33 36 47 59 65 56 45 50 100 100 100 100 87
23 93 100 100 100 54 73 100 100 100 86 31 32 42 57 57 19 22 14 18 25 33 41 42 47 36 39 33 29 37 36 36 28 20 31 30 26 29 28 34 34 65 96 100 100 100 89 56 30
42 93 99 95 100 58 44 99 98 84 76 61 35 39 48 61 35 23 22 17 20 33 41 52 54 42 35 44 31 31 35 43 40 24 9 12 14 15 18 30 36 85 84 92 90 55 43 31 29
21 84 94 87 100 75 96 90 63 61 49 19 43 35 49 72 55 25 25 24 19 22 32 43 72 72 43 40 41 23 20 20 16 18 25 10 14 17 28 29 58 67 41 48 57 44 48 32 38
21 66 96 86 100 60 100 100 79 38 35 47 41 35 37 58 62 50 35 27 23 19 24 28 28 33 34 29 22 19 20 21 19 15 12 31 9 10 18 13 23 42 28 43 56 62 39 30 42
22 74 94 79 93 100 67 99 100 96 66 49 42 38 38 48 67 61 77 29 21 18 18 23 27 37 28 26 22 19 26 20 19 20 18 25 10 8 9 10 12 13 14 21 42 38 61 38 45
25 76 63 62 69 100 57 100 100 99 83 44 52 55 50 44 86 62 79 63 35 18 15 19 24 24 20 20 18 17 17 18 17 20 19 18 16 11 10 10 12 16 16 20 50 52 54 38 32
37 42 65 45 47 76 89 78 96 100 97 86 47 68 53 40 51 42 77 88 53 26 18 21 25 28 20 16 14 16 16 16 22 30 32 20 18 18 13 12 16 17 18 22 39 52 62 45 28
43 40 61 37 47 50 100 68 79 95 100 97 53 57 38 36 59 39 71 84 70 44 22 20 27 26 23 18 15 18 16 14 17 36 54 28 20 18 18 13 12 14 16 20 24 48 52 60 30
40 35 45 38 36 40 49 100 92 85 100 100 71 46 61 52 42 36 60 77 68 75 36 22 19 30 30 24 18 22 21 19 15 51 98 29 21 20 19 18 15 12 13 18 23 35 51 65 52
26 23 25 34 29 37 30 42 86 86 100 94 96 40 43 70 44 46 38 43 78 87 48 31 22 21 33 38 25 28 33 26 17 21 74 66 30 21 21 19 18 14 14 21 24 24 40 52 60
23 19 15 17 22 24 26 55 74 49 60 67 68 53 33 51 57 49 47 49 44 83 62 43 21 22 24 36 33 32 45 30 24 20 60 61 30 24 22 21 20 18 15 14 14 20 24 44 48
25 24 19 20 18 20 19 41 62 87 47 46 54 45 28 38 53 54 48 60 31 80 56 55 33 19 21 28 34 38 45 46 37 29 38 76 38 23 23 21 21 20 18 16 14 13 17 21 42
22 24 24 24 22 19 20 67 60 53 72 56 34 26 32 31 36 56 55 51 29 51 52 61 59 20 21 24 24 31 39 48 40 41 34 51 60 29 20 20 21 22 20 19 17 15 14 16 23
18 20 24 24 24 22 21 26 26 32 28 28 41 74 73 22 31 56 47 60 25 26 46 45 64 60 19 26 31 27 33 37 52 39 40 50 57 31 20 18 20 23 22 21 20 18 17 15 16
12 17 22 23 24 24 22 22 24 28 22 20 26 52 29 26 32 61 59 66 31 26 21 56 54 74 38 22 24 34 28 32 66 57 52 62 50 46 28 16 19 23 23 22 23 23 21 18 16
13 11 16 23 23 25 24 20 19 19 20 20 23 28 46 29 34 94 72 69 28 27 26 18 37 52 53 32 21 21 34 51 92 70 45 63 62 66 56 24 22 20 23 24 23 23 25 22 17
20 10 10 18 24 26 23 20 19 20 21 21 24 32 27 28 31 88 94 35 22 26 27 24 20 48 47 34 22 22 23 20 36 65 53 60 96 67 73 32 31 19 30 28 24 24 25 25 21
17 15 9 14 18 23 24 23 21 20 21 21 24 27 36 36 24 25 39 24 21 19 21 27 20 32 42 25 33 17 28 20 37 42 90 72 71 79 51 48 36 25 22 31 37 25 25 26 27
14 18 16 15 16 19 20 22 22 18 31 23 23 23 23 31 30 22 28 32 18 15 17 25 20 17 37 45 24 19 24 25 19 48 88 82 66 77 81 85 100 64 37 22 29 40 28 28 26
14 16 19 24 15 16 18 20 20 21 21 21 30 26 22 24 28 21 36 26 15 15 18 16 20 16 22 47 38 21 16 23 27 36 50 44 39 46 73 99 74 52 42 30 23 25 42 37 34
15 16 16 25 30 21 18 18 18 20 20 21 21 22 22 30 24 26 29 27 18 17 16 15 17 19 17 23 45 36 22 16 26 40 57 42 44 38 62 82 79 34 27 32 24 20 22 32 37
18 14 17 20 26 30 23 16 15 18 19 19 20 19 19 19 24 22 18 18 22 20 16 15 13 18 18 20 32 44 42 22 22 23 23 34 42 37 41 65 92 72 72 35 50 38 20 23 26
19 20 16 15 20 33 29 29 13 17 15 17 19 19 18 24 53 54 53 28 18 18 19 19 16 15 20 17 20 22 31 37 19 23 26 24 37 38 45 41 48 99 93 69 31 23 22 24 23
19 20 19 15 18 32 42 34 25 26 16 14 16 17 17 17 37 63 93 69 76 54 30 27 20 17 17 18 18 19 20 33 41 22 26 30 26 33 35 37 76 84 80 73 59 48 43 39 32
20 20 20 18 18 18 40 18 25 35 27 18 15 15 15 15 16 87 82 99 99 100 93 70 32 23 18 15 16 18 18 23 47 32 20 26 30 26 30 39 78 90 84 49 73 94 75 81 56